Weather History for Budapest Ferihegy, Hungary

Change the Weather History Date:

Thursday, March 21, 2013

  Actual Average Record
Temperature  
Mean Temperature 42 °F -  
Max Temperature 48 °F 56 °F 69 °F (2014)
Min Temperature 35 °F 36 °F 17 °F (2005)
Degree Days  
Heating Degree Days 24    
Moisture  
Dew Point 42 °F    
Average Humidity 96    
Maximum Humidity 100    
Minimum Humidity 87    
Precipitation  
Precipitation 0.00 in - - ()
Sea Level Pressure  
Sea Level Pressure 29.74 in    
Wind  
Wind Speed 11 mph ()    
Max Wind Speed 26 mph    
Max Gust Speed -    
Visibility 5.7 miles    
Events Rain    
Averages and records for this station are not official NWS values.
T = Trace of Precipitation, MM = Missing Value Source: Averaged Metar Reports

Daily Weather History Graph

Daily Weather History Graph

Search for Another Location

Airport:

Trip Planner

Search our weather history database for the weather conditions in past years. The results will help you decide how hot, cold, wet, or windy it might be!

Date:

Astronomy

Mar. 21, 2013 Rise Set
Actual Time 5:43 AM CET 5:57 PM CET
Civil Twilight 5:13 AM CET 6:27 PM CET
Nautical Twilight 4:37 AM CET 7:03 PM CET
Astronomical Twilight 4:00 AM CET 7:41 PM CET
Moon 11:49 AM CET (3/21) 2:14 AM CET (3/21)
Length of Visible Light 13h 14m
Length of Day
12h 13m
Waxing Gibbous, 66% of the Moon is Illuminated
Mar 21
Waxing Gibbous
Mar 27
Full
Apr 3
Last Quarter
Apr 10
New
Apr 18
First Quarter

Hourly Weather History & Observations

Time (CET) Temp. Windchill Dew Point Humidity Pressure Visibility Wind Dir Wind Speed Gust Speed Precip Events Conditions
12:00 AM 46.4 °F 44.3 °F 44.6 °F 93% 29.77 in 6.2 mi Variable 4.6 mph - N/A Rain Light Rain
12:30 AM 46.4 °F 43.5 °F 46.4 °F 100% 29.77 in 6.2 mi NNW 5.8 mph - N/A Rain Light Rain
1:00 AM 46.4 °F 42.4 °F 44.6 °F 93% 29.74 in - NNW 8.1 mph - N/A   Clear
1:30 AM 48.2 °F - 44.6 °F 87% 29.74 in 6.2 mi North 6.9 mph - N/A Rain Light Rain
2:00 AM 48.2 °F - 44.6 °F 87% 29.74 in 6.2 mi Variable 3.5 mph - N/A Rain Light Rain
2:30 AM 48.2 °F - 44.6 °F 87% 29.74 in 6.2 mi NE 4.6 mph - N/A Rain Light Rain
3:00 AM 46.4 °F 41.5 °F 44.6 °F 93% 29.74 in 6.2 mi NNW 10.4 mph - N/A Rain Light Rain
3:30 AM 46.4 °F 41.9 °F 46.4 °F 100% 29.71 in 6.2 mi North 9.2 mph - N/A Rain Light Rain
4:00 AM 46.4 °F 41.9 °F 46.4 °F 100% 29.71 in 6.2 mi North 9.2 mph - N/A Rain Light Rain
4:30 AM 46.4 °F 41.5 °F 44.6 °F 93% 29.71 in 6.2 mi NNW 10.4 mph - N/A Rain Light Rain
5:00 AM 44.6 °F 39.2 °F 44.6 °F 100% 29.71 in 6.2 mi NNW 10.4 mph - N/A Rain Light Rain
5:30 AM 44.6 °F 39.2 °F 44.6 °F 100% 29.71 in 6.2 mi NNW 10.4 mph - N/A Rain Light Rain
6:00 AM 44.6 °F 38.8 °F 44.6 °F 100% 29.71 in 6.2 mi NNW 11.5 mph - N/A Rain Light Rain
6:30 AM 44.6 °F 38.8 °F 44.6 °F 100% 29.71 in 6.2 mi NNW 11.5 mph - N/A Rain Light Rain
7:00 AM 44.6 °F 39.7 °F 44.6 °F 100% 29.71 in 6.2 mi NNW 9.2 mph - N/A Rain Light Rain
7:30 AM 44.6 °F 40.2 °F 44.6 °F 100% 29.71 in 6.2 mi NNW 8.1 mph - N/A Rain Light Rain
8:00 AM 44.6 °F 39.7 °F 42.8 °F 93% 29.74 in 6.2 mi NNW 9.2 mph - N/A Rain Light Rain
8:30 AM 44.6 °F - 44.6 °F 100% 29.74 in 6.2 mi Variable 2.3 mph - N/A Rain Light Rain
9:00 AM 44.6 °F 40.7 °F 44.6 °F 100% 29.74 in 3.7 mi NNW 6.9 mph - N/A Rain Rain
9:30 AM 44.6 °F 39.2 °F 44.6 °F 100% 29.74 in 3.7 mi NW 10.4 mph - N/A Rain Rain
10:00 AM 44.6 °F 39.2 °F 44.6 °F 100% 29.74 in 3.7 mi NNW 10.4 mph - N/A Rain Rain
10:30 AM 44.6 °F 38.8 °F 44.6 °F 100% 29.74 in 3.7 mi NW 11.5 mph - N/A Rain Rain
11:00 AM 44.6 °F 38.1 °F 44.6 °F 100% 29.74 in 5.0 mi NW 13.8 mph - N/A Rain Light Rain
11:30 AM 42.8 °F 36.2 °F 42.8 °F 100% 29.74 in 5.0 mi NW 12.7 mph - N/A Rain Light Rain
12:00 PM 42.8 °F 35.4 °F 42.8 °F 100% 29.74 in 5.0 mi NW 15.0 mph - N/A Rain Light Rain
12:30 PM 44.6 °F 38.4 °F 44.6 °F 100% 29.74 in 5.0 mi NW 12.7 mph - N/A Rain Light Rain
1:00 PM 42.8 °F 34.8 °F 42.8 °F 100% 29.74 in 5.0 mi NW 17.3 mph - N/A Rain Light Rain
1:30 PM 42.8 °F 34.5 °F 42.8 °F 100% 29.71 in 5.0 mi NW 18.4 mph - N/A Rain Light Rain
2:00 PM 44.6 °F 36.9 °F 44.6 °F 100% 29.71 in 5.0 mi NW 18.4 mph - N/A Rain Light Rain
2:30 PM 42.8 °F 34.0 °F 42.8 °F 100% 29.71 in 5.0 mi NW 20.7 mph - N/A Rain Light Rain
3:00 PM 42.8 °F 33.8 °F 42.8 °F 100% 29.71 in 6.2 mi NW 21.9 mph - N/A Rain Light Rain
3:30 PM 42.8 °F 33.3 °F 41.0 °F 93% 29.71 in 6.2 mi NW 24.2 mph - N/A Rain Light Rain
4:00 PM 42.8 °F 33.5 °F 41.0 °F 93% 29.74 in 6.2 mi NW 23.0 mph - N/A Rain Light Rain
4:30 PM 42.8 °F 34.3 °F 41.0 °F 93% 29.74 in 6.2 mi NW 19.6 mph - N/A Rain Light Rain
5:00 PM 42.8 °F 34.3 °F 41.0 °F 93% 29.74 in 4.3 mi NW 19.6 mph - N/A Rain Light Rain
5:30 PM 42.8 °F 34.3 °F 41.0 °F 93% 29.74 in 6.2 mi NW 19.6 mph - N/A Rain Light Rain
6:00 PM 42.8 °F 33.8 °F 41.0 °F 93% 29.74 in 6.2 mi WNW 21.9 mph - N/A Rain Light Rain
6:30 PM 41.0 °F 30.9 °F 39.2 °F 93% 29.74 in 6.2 mi WNW 24.2 mph - N/A Rain Light Rain
7:00 PM 41.0 °F 31.1 °F 39.2 °F 93% 29.77 in 6.2 mi WNW 23.0 mph - N/A   Mostly Cloudy
7:30 PM 39.2 °F 28.0 °F 37.4 °F 93% 29.77 in 6.2 mi WNW 26.5 mph - N/A Rain Light Rain
8:00 PM 39.2 °F 28.5 °F 37.4 °F 93% 29.77 in 6.2 mi WNW 24.2 mph - N/A   Mostly Cloudy
8:30 PM 39.2 °F 28.3 °F 35.6 °F 87% 29.77 in 6.2 mi WNW 25.3 mph - N/A Rain Light Rain
9:00 PM 37.4 °F 26.1 °F 35.6 °F 93% 29.77 in 6.2 mi WNW 24.2 mph - N/A Rain Light Rain
9:30 PM 37.4 °F 25.6 °F 35.6 °F 93% 29.77 in 6.2 mi WNW 26.5 mph - N/A Rain Light Rain
10:00 PM 35.6 °F 23.7 °F 33.8 °F 93% 29.77 in 6.2 mi WNW 24.2 mph - N/A Rain Light Rain
10:30 PM 35.6 °F 23.4 °F 33.8 °F 93% 29.77 in 6.2 mi WNW 25.3 mph - N/A Rain Light Rain
11:00 PM 35.6 °F 23.7 °F 33.8 °F 93% 29.77 in 6.2 mi WNW 24.2 mph - N/A Rain Light Rain
11:30 PM 35.6 °F 24.5 °F 33.8 °F 93% 29.77 in 6.2 mi WNW 20.7 mph - N/A Rain Light Rain